Location: Saratoga Springs
(43.0831°N, 73.7850°W)
Time: 18:46:15
(UTC-04:00)

Vanguard 3 - All Passes

Search period start: 16 April 2024 00:00
Search period end: 26 April 2024 00:00
Orbit: 510 x 3235 km, 33.3° (Epoch: 16 April)

Date Brightness Start Highest point End Pass type
(mag) Time Alt. Az. Time Alt. Az. Time Alt. Az.
16 Apr - 04:08:25 10° SSW 04:16:27 18° SSE 04:22:25 10° ESE visible
16 Apr - 06:19:47 10° SW 06:28:47 31° S 06:34:27 10° ESE daylight
16 Apr - 08:33:37 10° WSW 08:40:07 32° S 08:44:23 10° SE daylight
16 Apr - 10:47:51 10° WSW 10:50:23 14° SSW 10:52:36 10° S daylight
17 Apr - 02:52:39 10° S 02:58:08 13° SSE 03:02:48 10° SE visible
17 Apr - 05:00:49 10° SW 05:11:00 28° SSE 05:17:39 10° ESE visible
17 Apr - 07:14:21 10° WSW 07:22:59 37° S 07:28:16 10° ESE daylight
17 Apr - 09:28:38 10° WSW 09:33:50 25° SSW 09:37:31 10° SE daylight
18 Apr - 03:42:27 10° SSW 03:52:48 23° SSE 04:00:07 10° ESE visible
18 Apr - 05:54:48 10° SW 06:05:25 36° S 06:11:52 10° ESE daylight
18 Apr - 08:09:20 10° WSW 08:16:57 36° S 08:21:44 10° SE daylight
18 Apr - 10:24:13 10° WSW 10:27:14 15° SSW 10:29:45 10° S daylight
19 Apr - 02:25:36 10° S 02:34:15 17° SSE 02:41:11 10° ESE visible
19 Apr - 04:35:22 10° SW 04:47:23 33° SSE 04:55:01 10° ESE visible
19 Apr - 06:49:37 10° WSW 06:59:39 41° S 07:05:35 10° ESE daylight
19 Apr - 09:04:33 10° WSW 09:10:39 27° SSW 09:14:46 10° SE daylight
20 Apr - 03:16:34 10° SSW 03:28:55 27° SSE 03:37:30 10° ESE visible
20 Apr - 05:29:40 10° SW 05:41:51 41° S 05:49:07 10° ESE visible
20 Apr - 07:44:49 10° WSW 07:53:39 39° SSW 07:59:00 10° SE daylight
20 Apr - 10:00:20 10° WSW 10:03:59 16° SSW 10:06:52 10° S daylight
21 Apr - 01:59:08 10° S 02:10:09 20° SSE 02:18:46 10° ESE visible
21 Apr - 04:09:52 10° SW 04:23:33 37° SSE 04:32:11 10° E visible
21 Apr - 06:24:42 10° WSW 06:36:09 45° S 06:42:48 10° ESE daylight
21 Apr - 08:40:14 10° W 08:47:20 29° SSW 08:51:58 10° SE daylight
22 Apr - 00:44:51 10° SSE 00:51:15 13° SE 00:57:01 10° ESE visible
22 Apr - 02:50:45 10° SSW 03:04:49 31° SSE 03:14:36 10° E visible
22 Apr - 05:04:23 10° WSW 05:18:05 46° S 05:26:12 10° ESE visible
22 Apr - 07:20:05 10° WSW 07:30:12 41° SSW 07:36:09 10° SE daylight
22 Apr - 09:36:11 10° WSW 09:40:35 17° SW 09:43:57 10° S daylight
23 Apr - 01:32:56 10° SSW 01:45:49 24° SSE 01:55:55 10° ESE visible
23 Apr - 03:44:19 10° SW 03:59:30 42° SSE 04:09:10 10° E visible
23 Apr - 05:59:35 10° WSW 06:12:27 49° S 06:19:53 10° ESE daylight
23 Apr - 08:15:40 10° W 08:23:52 31° SSW 08:29:03 10° SE daylight
24 Apr - 00:17:37 10° S 00:26:47 15° SE 00:34:55 10° ESE visible
24 Apr - 02:24:59 10° SSW 02:40:29 35° SSE 02:51:28 10° E visible
24 Apr - 04:39:00 10° WSW 04:54:07 49° S 05:03:10 10° ESE visible
24 Apr - 06:55:08 10° W 07:06:33 44° SSW 07:13:13 10° SE daylight
24 Apr - 09:11:47 10° WSW 09:17:03 18° SW 09:20:56 10° S daylight
25 Apr - 01:06:57 10° SSW 01:21:16 27° SSE 01:32:43 10° E visible
25 Apr - 03:18:44 10° SW 03:35:13 45° SSE 03:45:58 10° E visible
25 Apr - 05:34:20 10° WSW 05:48:35 51° S 05:56:50 10° ESE daylight
25 Apr - 07:50:52 10° W 08:00:14 33° SSW 08:06:02 10° SE daylight
